When you browse on this site, cookies collect data to enhance your experience and personalize the content and advertising you see.
Visit our Privacy Policy to learn more. By continuing to use the site, you agree to this use of cookies and data.
  • In Hungary
  • List of Countries
  • For 7 days
  • Water Temperature
  • Satellite Maps
  • Weather Map
  • News
  • Weather Widgets
  • user-avatar
    Login

    Hourly Weather Biddeford

    Today, 16 June, Sunday

    Time Temperature Precipitation Wind Pressure Humidity
    00:00 +21°C° 0 mm 6 mps 755 mmHg 56%
    01:00 +21°C° 0 mm 6 mps 756 mmHg 57%
    02:00 +20°C° 0.1 mm 5 mps 755 mmHg 67%
    03:00 +19°C° 0.1 mm 5 mps 755 mmHg 77%
    04:00 +17°C° 0.1 mm 5 mps 755 mmHg 86%
    05:00 +17°C° 0.1 mm 5 mps 755 mmHg 87%
    06:00 +17°C° 0.1 mm 5 mps 755 mmHg 88%
    07:00 +19°C° 0.1 mm 5 mps 756 mmHg 88%
    08:00 +19°C° 0.5 mm 5 mps 755 mmHg 90%
    09:00 +18°C° 0.5 mm 4 mps 755 mmHg 92%
    10:00 +18°C° 0.5 mm 4 mps 755 mmHg 94%
    11:00 +18°C° 1.4 mm 4 mps 755 mmHg 95%
    12:00 +18°C° 1.4 mm 4 mps 755 mmHg 96%
    13:00 +17°C° 1.4 mm 5 mps 755 mmHg 97%
    14:00 +18°C° 0.7 mm 4 mps 754 mmHg 97%
    15:00 +18°C° 0.7 mm 3 mps 754 mmHg 97%
    16:00 +18°C° 0.7 mm 3 mps 754 mmHg 97%
    17:00 +18°C° 0.1 mm 2 mps 754 mmHg 98%
    18:00 +18°C° 0.1 mm 2 mps 754 mmHg 98%
    19:00 +19°C° 0.1 mm 1 mps 754 mmHg 98%
    20:00 +18°C° 0 mm 1 mps 754 mmHg 98%
    21:00 +18°C° 0 mm 1 mps 754 mmHg 98%
    22:00 +17°C° 0 mm 2 mps 754 mmHg 98%
    23:00 +17°C° 0 mm 2 mps 754 mmHg 97%

    Tomorrow, 17 June, Monday

    Time Temperature Precipitation Wind Pressure Humidity
    00:00 +16°C° 0 mm 2 mps 754 mmHg 97%
    01:00 +16°C° 0 mm 2 mps 755 mmHg 96%
    02:00 +16°C° 0 mm 2 mps 755 mmHg 95%
    03:00 +15°C° 0 mm 2 mps 755 mmHg 94%
    04:00 +13°C° 0 mm 3 mps 756 mmHg 94%
    05:00 +14°C° 0 mm 3 mps 756 mmHg 90%
    06:00 +16°C° 0 mm 3 mps 757 mmHg 87%
    07:00 +17°C° 0 mm 3 mps 757 mmHg 84%
    08:00 +19°C° 0 mm 2 mps 757 mmHg 72%
    09:00 +21°C° 0 mm 2 mps 757 mmHg 59%
    10:00 +25°C° 0 mm 1 mps 757 mmHg 46%
    11:00 +25°C° 0 mm 2 mps 757 mmHg 46%
    12:00 +25°C° 0 mm 3 mps 757 mmHg 45%
    13:00 +25°C° 0 mm 3 mps 757 mmHg 44%
    14:00 +25°C° 0 mm 4 mps 757 mmHg 47%
    15:00 +23°C° 0 mm 4 mps 757 mmHg 50%
    16:00 +22°C° 0 mm 4 mps 757 mmHg 53%
    17:00 +21°C° 0 mm 4 mps 757 mmHg 60%
    18:00 +19°C° 0 mm 4 mps 758 mmHg 66%
    19:00 +17°C° 0 mm 4 mps 758 mmHg 72%
    20:00 +17°C° 0 mm 3 mps 758 mmHg 73%
    21:00 +16°C° 0 mm 3 mps 758 mmHg 75%
    22:00 +16°C° 0 mm 3 mps 758 mmHg 77%
    23:00 +16°C° 0 mm 2 mps 758 mmHg 79%

    Day after tomorrow, 18 June, Tuesday

    Time Temperature Precipitation Wind Pressure Humidity
    00:00 +16°C° 0 mm 2 mps 758 mmHg 81%
    01:00 +15°C° 0 mm 1 mps 758 mmHg 83%
    02:00 +16°C° 0 mm 1 mps 758 mmHg 82%
    03:00 +16°C° 0 mm 1 mps 758 mmHg 82%
    04:00 +15°C° 0 mm 0 mps 757 mmHg 82%
    05:00 +18°C° 0 mm 1 mps 757 mmHg 82%
    06:00 +18°C° 0 mm 1 mps 757 mmHg 82%
    07:00 +19°C° 0 mm 1 mps 758 mmHg 82%
    08:00 +19°C° 0.1 mm 1 mps 757 mmHg 83%
    09:00 +18°C° 0.1 mm 2 mps 757 mmHg 83%
    10:00 +19°C° 0.1 mm 2 mps 757 mmHg 84%
    11:00 +19°C° 0.2 mm 3 mps 757 mmHg 83%
    12:00 +20°C° 0.2 mm 3 mps 757 mmHg 82%
    13:00 +20°C° 0.2 mm 4 mps 756 mmHg 81%
    14:00 +20°C° 0 mm 4 mps 756 mmHg 80%
    15:00 +20°C° 0 mm 4 mps 756 mmHg 79%
    16:00 +20°C° 0 mm 4 mps 755 mmHg 78%
    17:00 +19°C° 0 mm 4 mps 755 mmHg 83%
    18:00 +18°C° 0 mm 3 mps 755 mmHg 88%
    19:00 +17°C° 0 mm 3 mps 756 mmHg 93%
    20:00 +17°C° 0.1 mm 3 mps 755 mmHg 95%
    21:00 +16°C° 0.1 mm 2 mps 755 mmHg 96%
    22:00 +16°C° 0.1 mm 2 mps 755 mmHg 97%
    23:00 +16°C° 0 mm 2 mps 755 mmHg 97%

    19 June, Wednesday

    Time Temperature Precipitation Wind Pressure Humidity
    00:00 +16°C° 0 mm 1 mps 755 mmHg 97%
    01:00 +16°C° 0 mm 1 mps 755 mmHg 97%
    02:00 +16°C° 0 mm 1 mps 755 mmHg 97%
    03:00 +16°C° 0 mm 0 mps 755 mmHg 97%
    04:00 +16°C° 0 mm 0 mps 755 mmHg 97%
    05:00 +16°C° 0 mm 0 mps 755 mmHg 95%
    06:00 +19°C° 0 mm 1 mps 755 mmHg 93%
    07:00 +19°C° 0 mm 1 mps 755 mmHg 91%
    08:00 +21°C° 0 mm 1 mps 755 mmHg 85%
    09:00 +22°C° 0 mm 1 mps 755 mmHg 78%
    10:00 +24°C° 0 mm 1 mps 755 mmHg 71%
    11:00 +23°C° 0 mm 2 mps 755 mmHg 72%
    12:00 +23°C° 0 mm 2 mps 754 mmHg 73%
    13:00 +22°C° 0 mm 3 mps 754 mmHg 73%
    14:00 +22°C° 0 mm 3 mps 754 mmHg 76%
    15:00 +21°C° 0 mm 3 mps 753 mmHg 79%
    16:00 +21°C° 0 mm 3 mps 753 mmHg 82%
    17:00 +20°C° 0 mm 2 mps 753 mmHg 86%
    18:00 +19°C° 0 mm 2 mps 753 mmHg 91%
    19:00 +19°C° 0 mm 1 mps 753 mmHg 96%
    20:00 +19°C° 0 mm 1 mps 753 mmHg 96%
    21:00 +18°C° 0 mm 1 mps 753 mmHg 97%
    22:00 +16°C° 0 mm 0 mps 753 mmHg 98%
    23:00 +18°C° 0 mm 1 mps 753 mmHg 98%

    20 June, Thursday

    Time Temperature Precipitation Wind Pressure Humidity
    00:00 +18°C° 0 mm 1 mps 752 mmHg 98%
    01:00 +17°C° 0 mm 2 mps 752 mmHg 98%
    02:00 +17°C° 0 mm 3 mps 752 mmHg 96%
    03:00 +17°C° 0 mm 3 mps 752 mmHg 95%
    04:00 +17°C° 0 mm 4 mps 752 mmHg 94%
    05:00 +18°C° 0 mm 3 mps 752 mmHg 90%
    06:00 +18°C° 0 mm 3 mps 752 mmHg 87%
    07:00 +19°C° 0 mm 3 mps 753 mmHg 83%
    08:00 +21°C° 0 mm 3 mps 753 mmHg 73%
    09:00 +24°C° 0 mm 3 mps 753 mmHg 63%
    10:00 +26°C° 0 mm 2 mps 753 mmHg 53%
    11:00 +26°C° 0 mm 2 mps 753 mmHg 50%
    12:00 +27°C° 0 mm 2 mps 752 mmHg 48%
    13:00 +27°C° 0 mm 3 mps 752 mmHg 45%
    14:00 +26°C° 0 mm 3 mps 752 mmHg 51%
    15:00 +25°C° 0 mm 3 mps 752 mmHg 57%
    16:00 +23°C° 0 mm 4 mps 752 mmHg 63%
    17:00 +21°C° 0 mm 3 mps 753 mmHg 69%
    18:00 +20°C° 0 mm 3 mps 753 mmHg 75%
    19:00 +19°C° 0 mm 3 mps 754 mmHg 80%
    20:00 +18°C° 0.2 mm 2 mps 754 mmHg 84%
    21:00 +18°C° 0.2 mm 2 mps 754 mmHg 88%
    22:00 +17°C° 0.2 mm 2 mps 754 mmHg 91%
    23:00 +17°C° 0.3 mm 2 mps 754 mmHg 92%

    21 June, Friday

    Time Temperature Precipitation Wind Pressure Humidity
    00:00 +17°C° 0.3 mm 2 mps 754 mmHg 93%
    01:00 +17°C° 0.3 mm 2 mps 754 mmHg 94%
    02:00 +17°C° 0.1 mm 2 mps 754 mmHg 94%
    03:00 +17°C° 0.1 mm 2 mps 754 mmHg 94%
    04:00 +17°C° 0.1 mm 2 mps 754 mmHg 94%
    05:00 +17°C° 0 mm 2 mps 754 mmHg 94%
    06:00 +17°C° 0 mm 2 mps 754 mmHg 94%
    07:00 +17°C° 0 mm 2 mps 754 mmHg 94%
    08:00 +17°C° 1.3 mm 2 mps 754 mmHg 95%
    09:00 +16°C° 1.3 mm 3 mps 754 mmHg 96%
    10:00 +16°C° 1.3 mm 3 mps 754 mmHg 97%
    11:00 +16°C° 2.1 mm 3 mps 754 mmHg 97%
    12:00 +14°C° 2.1 mm 3 mps 754 mmHg 97%
    13:00 +14°C° 2.1 mm 4 mps 754 mmHg 97%
    14:00 +14°C° 1.3 mm 4 mps 754 mmHg 97%
    15:00 +14°C° 1.3 mm 4 mps 753 mmHg 98%
    16:00 +14°C° 1.3 mm 5 mps 753 mmHg 98%
    17:00 +14°C° 0.6 mm 6 mps 753 mmHg 98%
    18:00 +14°C° 0.6 mm 6 mps 753 mmHg 98%
    19:00 +12°C° 0.6 mm 7 mps 753 mmHg 97%
    20:00 +12°C° 1 mm 7 mps 752 mmHg 97%
    21:00 +12°C° 1 mm 7 mps 752 mmHg 97%
    22:00 +12°C° 1 mm 7 mps 752 mmHg 97%
    23:00 +12°C° 2.8 mm 7 mps 752 mmHg 98%
    Show more